{"data":{"norad_id":40072,"epoch":"2026-09-20T03:12:56.412000Z","epoch_age_seconds":46015,"freshness":"FRESH","line1":"1 40072U 14037D   26263.13398625  .00000870  00000+0  10099-3 0  9990","line2":"2 40072  98.3957 227.5786 0005124 344.3307  15.7748 14.88226333660081","mean_motion":14.88226333,"eccentricity":0.0005124,"inclination_deg":98.3957,"raan_deg":227.5786,"arg_perigee_deg":344.3307,"mean_anomaly_deg":15.7748,"bstar":0.00010099,"rev_number":66008,"period_min":96.759475898885,"perigee_km":599.89990441849,"apogee_km":607.0546627363,"semimajor_km":6981.6142835774,"source":"CELESTRAK","updated_at":"2026-09-20T09:00:34.706795Z"}}